Location: Bottom School (historical)
(37.9078°N, 89.3593°W)
Time: 00:05:36
(UTC+00:00)

STRAND 1 - Pass Details

Date: 03 April 2023
Orbit: 767 x 779 km, 98.4° (Epoch: 28 May)

Event Time Altitude Azimuth Distance (km) Brightness Sun altitude
Rises 10:19:53 0° 111° (ESE) 3,246 ? -16.2°
Reaches altitude 10° 10:23:59 10° 78° (ENE) 2,321 ? -15.4°
Maximum altitude 10:25:29 11° 61° (ENE) 2,232 ? -15.1°
Drops below altitude 10° 10:27:00 10° 43° (NE) 2,323 ? -14.8°
Sets 10:31:05 0° 11° (N) 3,252 ? -14.1°
